Regional Weather Roundup
Issued by NWS Upton, NY

Current Version | Previous Version | Graphics & Text | Print | Product List | Glossary Off
Versions: 1 2 3 4 5 6 7 8 9 10 11 12 13 14 15 16 17 18 19 20 21 22 23 24 25 26 27 28 29 30 31 32 33 34 35 36 37 38 39 40 41 42 43 44 45 46 47 48 49 50

000
ASUS41 KOKX 290704
RWROKX

REGIONAL WEATHER ROUNDUP
NATIONAL WEATHER SERVICE NEW YORK NY
300 AM EDT SAT AUG 29 2015

NOTE: "FAIR" INDICATES FEW OR NO CLOUDS BELOW 12,000 FEET WITH NO
SIGNIFICANT WEATHER AND/OR OBSTRUCTIONS TO VISIBILITY.

NYZ071-072-176-178-NJZ106-104-290800-
NEW YORK CITY METRO AREA


CITY           SKY/WX    TMP DP  RH WIND       PRES   REMARKS
CENTRAL PARK   CLEAR     70  53  54 CALM      30.21S
LAGUARDIA APRT PTCLDY    72  55  55 CALM      30.18S
KENNEDY INTL   PTCLDY    70  61  73 W5        30.19S
NEWARK/LIBERTY PTCLDY    66  56  70 CALM      30.19S
BRNX BOT. GARD   N/A     63  54  72 NE1       30.20R
TETERBORO      CLEAR     64  53  67 CALM      30.18S
$$

NYZ177-179-078>081-290800-
LONG ISLAND NEW YORK

CITY           SKY/WX    TMP DP  RH WIND       PRES   REMARKS
FARMINGDALE    CLEAR     65  60  84 CALM      30.19R
ISLIP          CLEAR     63  58  83 N5        30.17S
SHIRLEY        CLEAR     60  58  92 CALM      30.19R
WESTHAMPTON    CLEAR     53  50  89 CALM      30.20S
MONTAUK POINT    N/A     70  63  78 CALM      30.18F
$$

NYZ052-065-067-290800-
HUDSON VALLEY

CITY           SKY/WX    TMP DP  RH WIND       PRES   REMARKS
WHITE PLAINS   CLEAR     60  55  83 NW5       30.19R
NEWBURGH       CLEAR     57  55  94 CALM      30.21
MONTGOMERY     CLEAR     53  51  93 CALM      30.20S
POUGHKEEPSIE   CLEAR     56  53  90 CALM      30.19S
ALBANY         MOCLDY    57  53  86 CALM      30.19S
$$

NJZ001-105-106-008-010-013-015-019>022-104-290800-
NEW JERSEY

CITY           SKY/WX    TMP DP  RH WIND       PRES   REMARKS
NEWARK/LIBERTY PTCLDY    66  56  70 CALM      30.19S
TETERBORO      CLEAR     64  53  67 CALM      30.18S
CALDWELL       CLEAR     59  54  83 CALM      30.21R
MORRISTOWN     CLEAR     52  48  87 CALM      30.20S
SOMERVILLE     CLEAR     56  53  90 CALM      30.18S
SUSSEX         CLEAR     51  49  92 CALM      30.21S
ANDOVER          N/A     53  52  96 CALM      30.22S
TRENTON        CLEAR     58  55  90 CALM      30.19S
MILLVILLE      CLEAR     57  56  96 CALM      30.20S
ATLANTIC CITY  CLEAR     59  56  89 CALM      30.20S
WRIGHTSTOWN    CLEAR     58  57  96 E2        30.17S
TOMS RIVER     CLEAR    N/A N/A N/A CALM      30.19F
BELMAR         CLEAR     61  52  72 CALM      30.19F
$$

PAZ047>061-062-071-290800-
EASTERN PENNSYLVANIA

CITY           SKY/WX    TMP DP  RH WIND       PRES   REMARKS
PHILADELPHIA   CLEAR     69  61  75 SW3       30.20S
ALLENTOWN      CLEAR     56  54  93 NW3       30.20F
SCRANTON       PTCLDY    58  51  78 E7        30.21S
$$

CTZ002-004>006-009-010-012-RIZ004-006-007-MAZ004-011-015-290800-
SOUTHERN NEW ENGLAND
 IN CT

CITY           SKY/WX    TMP DP  RH WIND       PRES   REMARKS
BRADLEY INTL   PTCLDY    56  54  93 NW3       30.18S
HARTFORD       CLEAR     60  58  92 CALM      30.18S
DANBURY        CLEAR     55  51  86 SW3       30.21S
WTRBRY/OXFORD  CLEAR     55  48  76 CALM      30.22R
BRIDGEPORT     CLEAR     64  56  75 N3        30.18S
MERIDEN        CLEAR     57  53  86 CALM      30.19S
NEW HAVEN      CLEAR     58  55  90 CALM      30.19R
CHESTER        NOT AVBL
GROTON         CLEAR     60  60 100 N5        30.17S
WILLIMANTIC    PTCLDY    56  54  93 CALM      30.19S

 IN RI

CITY           SKY/WX    TMP DP  RH WIND       PRES   REMARKS
PROVIDENCE     CLEAR     62  56  80 W3        30.17F
BLOCK ISLAND   CLEAR     66  64  94 W6        30.18S
WESTERLY       CLEAR     58  56  93 CALM      30.18S

 IN MA

CITY           SKY/WX    TMP DP  RH WIND       PRES   REMARKS
BOSTON         CLEAR     64  57  78 S5        30.16S
WORCESTER      CLEAR     59  52  77 W7        30.19F
WESTFIELD      CLEAR     53  52  96 CALM      30.18S FOG
PROVINCETOWN   CLEAR     63  55  77 SW5       30.17R
NANTUCKET      CLEAR     65  62  90 SW6       30.17F
$$

ANZ330-335-338-340-345-350-353-355-290800-
COASTAL MARINE OBSERVATIONS


STATION/POSITION TIME  SKY/WX   TEMP    WIND        PRES    VSBY  WAVE
                                AIR SEA DIR/SP/G                  HT/PER
                 (UTC)          (F)     (DEG/KT/KT) (MB)    (MI)  (FT/S)
NY HARB ENTRANCE 0550            73 75  250/ 10/ 10 1021.9          2/11
4S FIRE IS       NOT AVBL
20S FIRE ISLAND  0550            73 75  240/  6/  8 1022.2          3/11
GREAT SOUTH BAY  0600            73 78  230/  8/ 10   N/A
23SW MTP         0650            72 72  270/  8/ 10 1021.6          3/11
HUDSON CANYON    NOT AVBL
KINGS POINT      NOT AVBL
EXECUTION ROCKS  0600            71     320/  2/  4   N/A
CENTRAL LI SOUND NOT AVBL
EASTERN LI SOUND 0600            70 70  310/  4/  6   N/A
ROBBINS REEF     NOT AVBL
$$


>>>>>>>>>>>>>>>>>>>>>>>>>>>> KEY <<<<<<<<<<<<<<<<<<<<<<<<<<<
>                                                          <
>     SKY/WX - SKY CONDITION/PRESENT WEATHER               <
>     TMP    - TEMPERATURE IN FAHRENHEIT                   <
>     DP     - DEWPOINT IN FAHRENHEIT                      <
>     RH     - RELATIVE HUMIDITY IN PERCENT                <
>     WIND   - DIRECTION AND SPEED IN MPH                  <
>     PRES   - MEAN SEA LEVEL PRESSURE IN INCHES OF HG     <
>     WCI    - WIND CHILL INDEX                            <
>     VSB    - VISIBILITY IN MILES                         <
>     HX     - HEAT INDEX                                  <
>     TC     - TEMPERATURE IN CELSIUS                      <
>     VRB    - VARIABLE WIND DIRECTION                     <
>                                                          <
>>>>>>>>>>>>>>>>>>>>>>>>>>>> KEY <<<<<<<<<<<<<<<<<<<<<<<<<<<




USA.gov is the U.S. government's official web portal to all federal, state and local government web resources and services.